SCP
4 3 3 3 3 2 2 2 2 1 1 2 2 2 2 2 2 2 2 1 0 0 0 0 0 0 0 0 0 0 0 0 1 1 0 0 1 1
3 3 3 3 2 2 2 2 2 2 1 2 2 2 2 2 2 2 2 1 1 0 0 0 0 0 0 0 0 0 0 0 0 0 0 0 0 0
3 3 3 2 2 2 2 2 2 2 1 1 2 3 3 3 2 3 2 2 1 0 0 0 0 0 0 0 0 0 0 0 0 0 0 0 0 0
4 3 3 2 2 2 2 2 2 2 2 2 3 3 4 3 3 2 2 1 1 0 0 0 0 0 0 0 0 0 0 0 0 0 0 0 0 0
4 4 3 3 3 3 3 3 3 3 2 2 3 3 4 3 2 2 1 1 1 1 0 0 0 0 0 0 0 0 0 0 0 0 0 0 0 0
4 4 3 3 2 3 3 3 3 3 3 3 3 3 3 2 2 1 1 1 1 1 0 0 0 0 0 0 0 0 0 0 0 0 0 0 0 0
4 3 2 2 1 2 2 3 3 3 4 3 3 2 2 2 1 1 1 1 1 1 1 0 0 0 0 0 0 0 0 0 0 0 0 0 0 0
2 2 1 1 1 1 1 1 2 3 3 3 3 2 1 1 1 1 1 1 1 1 1 0 0 0 0 0 0 0 0 0 0 0 0 0 0 0
1 1 1 1 0 0 0 1 1 2 2 3 3 2 2 1 1 1 1 1 1 1 1 0 0 0 0 0 0 0 0 0 0 0 0 0 0 0
1 1 1 1 0 0 0 1 1 1 1 2 2 2 2 1 1 1 1 1 1 0 0 0 0 0 0 0 0 0 0 0 0 0 0 0 0 0
1 1 1 1 0 0 0 1 1 0 0 1 1 2 2 1 1 1 1 1 0 0 0 0 0 0 0 0 0 0 0 0 0 0 0 0 0 0
1 1 1 1 0 0 0 1 1 1 0 0 0 1 1 1 1 1 1 1 0 0 0 0 0 0 0 0 0 0 0 0 0 0 0 0 0 0
1 1 1 0 0 0 0 1 1 1 1 1 1 0 1 1 1 1 1 1 1 1 1 1 1 1 1 0 0 1 0 0 0 0 0 0 0 0
1 1 1 0 0 0 0 0 0 1 1 1 1 1 1 1 1 1 1 1 1 1 1 1 1 1 1 1 1 1 1 1 1 1 1 1 0 0
1 1 0 0 0 0 0 0 0 0 1 1 1 1 1 1 1 1 2 1 1 1 1 2 2 1 1 1 1 1 1 1 1 1 1 1 1 0
1 0 0 0 0 0 0 0 0 0 1 1 1 1 1 1 1 1 1 1 1 1 1 1 1 1 1 1 1 1 1 1 1 1 1 1 0 0
0 0 0 1 0 1 0 0 0 0 1 1 1 1 1 1 1 1 1 1 1 1 1 1 1 1 1 1 1 1 1 1 1 1 0 0 0 0
0 0 0 1 1 1 1 1 0 0 1 1 1 1 1 1 1 1 1 0 0 0 0 0 1 1 1 1 0 0 0 0 0 0 0 0 0 0
0 0 0 0 1 1 1 0 0 1 1 1 1 1 1 1 1 1 1 0 0 0 0 0 1 1 1 0 0 0 0 0 0 1 1 0 0 0
0 0 0 0 1 1 1 1 1 1 1 1 2 1 1 1 1 1 1 0 0 0 0 1 1 1 0 0 0 0 0 0 0 0 0 0 0 0
0 0 0 0 0 1 1 1 1 1 1 2 2 1 1 1 1 1 1 0 0 0 0 1 1 1 0 0 0 0 0 0 0 0 0 0 0 0
0 0 0 0 0 1 1 1 1 1 2 3 3 3 3 2 1 1 0 0 0 0 0 1 1 0 0 0 0 0 0 0 0 0 0 0 0 0
0 0 0 0 1 1 1 1 1 1 2 4 5 5 5 3 2 1 0 0 0 0 0 0 0 0 0 0 0 0 0 0 0 0 0 0 0 0
Wind_Speed
1 1 1 1 1 1 1 1 1 1 1 1 1 1 1 2 5 4 4 7 7 7 7 6 5 4 4 3 3 3 3 3 3 4 3 3 3 3
0 1 1 2 1 1 0 0 0 1 1 1 1 1 1 1 4 2 3 8 8 8 7 7 6 5 4 4 4 4 3 2 3 3 3 3 2 2
1 1 1 1 2 2 2 1 1 1 1 0 1 2 1 1 2 1 2 4 4 8 8 8 7 6 5 5 5 4 4 3 2 2 2 2 2 3
0 1 1 1 2 2 1 1 1 1 1 1 1 2 2 2 2 2 2 3 3 7 9 8 7 7 6 5 5 4 4 3 3 2 2 2 2 2
1 1 2 2 2 2 1 1 1 1 1 1 1 1 2 2 1 1 1 1 2 5 7 7 7 6 6 5 5 5 4 4 3 3 3 3 3 2
2 2 2 3 2 2 2 2 2 1 0 1 1 1 1 1 1 0 0 1 1 2 4 5 6 6 6 6 6 6 6 5 4 4 4 4 3 3
2 3 4 5 6 4 3 2 2 2 1 1 1 1 1 1 0 0 0 0 1 1 2 2 4 3 4 6 7 7 7 6 5 5 5 5 5 4
2 2 3 4 4 4 5 5 3 2 2 2 1 1 1 1 0 1 0 0 1 0 1 1 2 2 3 4 8 9 9 8 7 6 6 6 5 5
2 1 1 3 2 1 1 2 3 4 3 2 1 1 0 0 0 1 1 1 1 1 1 1 1 1 2 3 9 10 9 8 8 7 7 6 6 5
2 2 2 2 2 2 0 1 1 1 0 1 1 0 0 1 1 2 3 2 1 1 1 1 1 2 2 2 8 10 10 9 9 8 7 7 6 6
2 2 2 2 2 2 1 1 1 1 1 1 1 1 2 2 1 1 1 1 1 1 0 1 1 1 1 2 4 9 9 10 9 9 8 8 7 5
2 2 3 3 3 1 0 0 0 1 1 1 1 2 2 2 2 2 1 1 1 1 0 0 0 1 1 1 1 3 4 7 9 9 9 8 7 4
1 1 2 4 4 1 1 1 1 2 2 2 2 1 1 1 1 1 1 1 1 1 1 0 1 1 1 1 1 2 3 3 4 5 8 9 9 7
1 1 2 4 3 2 1 1 2 2 2 2 1 0 0 0 1 1 1 1 1 2 2 1 1 1 1 2 2 1 2 2 3 3 3 6 7 8
1 1 1 3 2 3 4 4 3 2 2 2 1 1 1 1 1 1 1 1 2 2 2 2 2 1 1 2 2 2 2 2 2 2 2 3 3 3
1 1 2 4 4 3 2 2 2 2 1 1 1 1 1 1 1 1 1 1 1 2 2 2 2 2 2 3 2 2 2 2 1 1 1 1 2 3
1 1 2 2 2 2 2 3 2 2 1 1 1 2 2 1 1 1 1 1 1 1 2 2 2 2 2 2 2 2 2 2 1 1 1 1 2 1
1 2 2 1 1 1 1 2 2 2 1 1 1 2 2 2 2 1 1 1 2 2 2 2 1 1 2 2 2 2 2 2 2 1 2 2 2 1
2 2 1 1 2 2 2 1 1 1 1 1 1 1 2 2 2 2 2 1 2 2 2 1 1 1 2 3 3 3 2 2 1 1 1 1 2 1
3 3 2 2 2 2 2 1 1 1 1 1 1 1 2 2 2 2 2 2 2 2 2 1 2 2 3 3 2 3 4 3 2 1 2 1 1 0
3 3 2 2 2 1 1 1 1 1 1 1 1 2 2 2 2 2 2 3 3 2 2 2 3 4 2 1 2 2 2 3 2 2 2 1 2 2
2 2 2 1 1 1 1 1 1 1 1 1 2 2 2 2 2 3 3 2 2 2 2 2 2 1 1 2 3 3 2 2 2 2 3 3 2 2
2 2 2 1 1 1 1 2 2 1 1 1 2 2 2 3 3 3 3 2 2 2 2 2 2 2 2 2 2 2 2 1 1 1 2 3 4 4
Wind_Direction
312 308 303 317 310 282 221 191 177 197 203 146 126 138 148 139 149 163 155 167 164 168 172 172 175 178 183 189 187 185 194 206 220 223 230 241 249 248
333 354 347 333 337 316 333 280 162 156 173 146 132 119 115 127 149 165 155 161 174 178 181 182 184 187 186 187 187 185 191 199 218 223 230 245 243 228
9 31 9 338 360 4 10 2 47 96 141 126 120 131 126 100 132 165 158 171 179 187 184 184 186 189 189 189 189 194 201 202 200 217 235 238 247 242
54 41 22 26 27 28 20 357 29 76 123 156 159 158 171 175 171 184 200 193 174 179 181 181 183 185 190 194 194 195 196 193 197 209 215 227 237 250
100 58 39 38 28 31 17 16 359 56 115 167 192 180 181 169 170 215 199 206 193 159 172 179 183 183 189 194 191 188 193 198 208 215 221 229 234 236
102 78 59 49 37 20 34 15 3 23 137 180 184 159 143 148 142 167 239 215 212 158 159 165 172 181 190 192 195 198 199 202 206 212 220 226 230 235
98 89 83 74 62 54 48 30 34 31 27 35 91 83 86 82 97 319 353 302 295 151 136 165 160 178 195 203 204 204 202 202 207 214 220 224 228 232
89 98 124 106 90 79 65 58 61 68 47 43 31 53 62 76 61 308 267 301 262 176 122 209 174 187 195 191 194 195 199 203 206 212 220 223 226 230
105 86 85 95 99 98 118 88 68 71 85 98 57 18 307 272 210 261 264 253 255 225 188 240 217 212 210 188 182 188 193 200 205 210 216 219 222 226
113 102 104 89 68 19 350 93 108 86 63 117 92 305 330 308 255 242 252 244 258 261 195 222 223 228 220 175 187 190 195 200 205 209 215 219 223 227
127 106 109 107 82 37 21 66 82 33 48 77 224 241 267 275 284 305 292 263 272 245 239 205 234 245 227 197 189 197 201 205 209 212 216 220 225 227
147 134 116 109 117 92 340 341 350 316 322 292 272 261 247 236 229 228 249 261 298 303 335 7 294 308 291 240 170 189 211 219 218 220 221 223 220 218
158 139 130 136 133 148 287 276 256 285 285 269 242 222 214 202 191 219 228 239 286 289 310 350 301 308 287 299 286 205 202 212 207 220 221 220 214 205
342 81 120 144 154 195 230 276 299 302 283 287 277 241 193 230 245 228 212 233 246 251 260 261 263 252 267 285 284 262 233 218 202 208 209 203 211 218
4 51 156 179 195 218 229 254 274 268 269 278 278 252 221 219 223 206 201 236 271 273 271 241 238 238 235 251 256 259 267 256 213 199 198 196 198 195
220 277 240 216 229 251 236 229 235 249 255 269 289 283 253 222 222 217 218 239 254 281 286 276 266 245 250 254 244 252 252 249 247 212 202 222 213 198
200 237 228 202 204 211 215 213 215 220 242 272 295 301 299 286 259 233 230 242 256 269 278 278 282 276 254 256 255 258 260 262 237 214 221 243 248 213
189 247 247 235 234 245 252 241 214 205 224 234 256 272 277 276 273 264 246 249 252 246 255 259 256 282 292 294 266 267 275 270 264 254 235 225 250 228
208 249 257 270 276 270 251 252 252 224 222 240 242 259 276 278 272 272 267 261 275 271 265 257 244 242 273 282 281 262 256 258 268 279 280 247 237 231
221 245 241 240 249 262 270 274 275 284 274 264 255 271 279 281 284 289 285 281 278 275 273 258 238 238 245 257 268 280 263 247 233 242 267 266 254 162
222 232 244 249 254 263 270 256 253 252 257 271 269 270 269 277 290 287 282 282 277 278 282 274 268 263 254 258 269 274 272 261 233 214 235 251 255 245
234 241 259 266 272 280 282 279 271 258 271 279 281 282 282 277 272 270 274 281 274 273 279 272 271 280 268 261 261 267 265 274 265 258 260 242 230 235
240 258 267 270 277 282 304 309 310 320 329 305 291 282 283 282 283 285 281 274 279 281 275 273 280 280 273 267 265 268 264 256 261 278 285 261 235 240